When you browse on this site, cookies collect data to enhance your experience and personalize the content and advertising you see.
Visit our Privacy Policy to learn more. By continuing to use the site, you agree to this use of cookies and data.
  • In United Kingdom
  • List of Countries
  • For 7 days
  • Water Temperature
  • Satellite Maps
  • Weather Map
  • Weather Widgets
  • user-avatar
    Login

    Hourly Weather Vuokatti

    Today, 20 March, Wednesday

    Time Temperature Precipitation Wind Pressure Humidity
    00:00 -2°C° 0 mm 1 mps 746 mmHg 94%
    01:00 -2°C° 0 mm 1 mps 746 mmHg 94%
    02:00 -3°C° 0 mm 1 mps 746 mmHg 94%
    03:00 -3°C° 0 mm 1 mps 746 mmHg 94%
    04:00 -2°C° 0 mm 1 mps 746 mmHg 95%
    05:00 -2°C° 0 mm 1 mps 746 mmHg 95%
    06:00 -2°C° 0 mm 1 mps 746 mmHg 95%
    07:00 -2°C° 0 mm 1 mps 745 mmHg 95%
    08:00 -4°C° 0 mm 2 mps 745 mmHg 94%
    09:00 -3°C° 0 mm 2 mps 745 mmHg 92%
    10:00 -2°C° 0 mm 2 mps 744 mmHg 90%
    11:00 -1°C° 0 mm 3 mps 744 mmHg 89%
    12:00 -1°C° 0 mm 3 mps 744 mmHg 87%
    13:00 -1°C° 0 mm 3 mps 743 mmHg 86%
    14:00 -1°C° 0 mm 3 mps 743 mmHg 85%
    15:00 -1°C° 0.1 mm 3 mps 742 mmHg 87%
    16:00 -2°C° 0.1 mm 3 mps 742 mmHg 88%
    17:00 -2°C° 0.1 mm 3 mps 742 mmHg 90%
    18:00 -2°C° 0.2 mm 2 mps 741 mmHg 91%
    19:00 -3°C° 0.2 mm 2 mps 741 mmHg 93%
    20:00 -3°C° 0.2 mm 2 mps 741 mmHg 95%
    21:00 -1°C° 0.1 mm 1 mps 741 mmHg 96%
    22:00 -1°C° 0.1 mm 1 mps 741 mmHg 97%
    23:00 -1°C° 0.1 mm 1 mps 741 mmHg 97%

    Tomorrow, 21 March, Thursday

    Time Temperature Precipitation Wind Pressure Humidity
    00:00 -1°C° 0.1 mm 1 mps 742 mmHg 97%
    01:00 -3°C° 0.1 mm 2 mps 742 mmHg 96%
    02:00 -3°C° 0.1 mm 2 mps 742 mmHg 96%
    03:00 -3°C° 0 mm 2 mps 742 mmHg 95%
    04:00 -3°C° 0 mm 2 mps 743 mmHg 95%
    05:00 -2°C° 0 mm 2 mps 743 mmHg 95%
    06:00 -2°C° 0 mm 2 mps 743 mmHg 94%
    07:00 -2°C° 0 mm 2 mps 743 mmHg 94%
    08:00 -2°C° 0 mm 3 mps 743 mmHg 93%
    09:00 -2°C° 0 mm 3 mps 743 mmHg 94%
    10:00 -1°C° 0 mm 3 mps 744 mmHg 94%
    11:00 -1°C° 0 mm 3 mps 744 mmHg 94%
    12:00 -1°C° 0 mm 3 mps 744 mmHg 94%
    13:00 0°C° 0 mm 3 mps 743 mmHg 94%
    14:00 0°C° 0 mm 3 mps 743 mmHg 94%
    15:00 0°C° 0.1 mm 3 mps 743 mmHg 93%
    16:00 0°C° 0.1 mm 3 mps 742 mmHg 92%
    17:00 0°C° 0.1 mm 3 mps 742 mmHg 92%
    18:00 0°C° 0.5 mm 3 mps 741 mmHg 92%
    19:00 -1°C° 0.5 mm 4 mps 740 mmHg 92%
    20:00 -1°C° 0.5 mm 5 mps 739 mmHg 92%
    21:00 -1°C° 0.4 mm 5 mps 739 mmHg 89%
    22:00 -1°C° 0.4 mm 5 mps 738 mmHg 87%
    23:00 -1°C° 0.4 mm 5 mps 737 mmHg 85%

    Day after tomorrow, 22 March, Friday

    Time Temperature Precipitation Wind Pressure Humidity
    00:00 -1°C° 0 mm 5 mps 737 mmHg 85%
    01:00 -2°C° 0 mm 4 mps 737 mmHg 85%
    02:00 -3°C° 0 mm 4 mps 737 mmHg 85%
    03:00 -3°C° 0.1 mm 4 mps 738 mmHg 87%
    04:00 -4°C° 0.1 mm 5 mps 738 mmHg 89%
    05:00 -2°C° 0.1 mm 5 mps 739 mmHg 91%
    06:00 -2°C° 0.3 mm 5 mps 740 mmHg 90%
    07:00 -2°C° 0.3 mm 5 mps 741 mmHg 90%
    08:00 -2°C° 0.3 mm 5 mps 742 mmHg 90%
    09:00 -2°C° 0.1 mm 5 mps 744 mmHg 89%
    10:00 -2°C° 0.1 mm 5 mps 745 mmHg 88%
    11:00 -1°C° 0.1 mm 4 mps 746 mmHg 87%
    12:00 -1°C° 0 mm 4 mps 747 mmHg 86%
    13:00 -1°C° 0 mm 4 mps 748 mmHg 86%
    14:00 0°C° 0 mm 3 mps 749 mmHg 86%
    15:00 -1°C° 0 mm 3 mps 749 mmHg 87%
    16:00 -1°C° 0 mm 2 mps 749 mmHg 87%
    17:00 +1°C° 0 mm 1 mps 749 mmHg 87%
    18:00 0°C° 0 mm 1 mps 749 mmHg 89%
    19:00 -1°C° 0 mm 1 mps 749 mmHg 91%
    20:00 -3°C° 0 mm 1 mps 749 mmHg 93%
    21:00 -5°C° 0 mm 2 mps 748 mmHg 93%
    22:00 -5°C° 0 mm 3 mps 747 mmHg 92%
    23:00 -5°C° 0 mm 3 mps 746 mmHg 92%

    23 March, Saturday

    Time Temperature Precipitation Wind Pressure Humidity
    00:00 -5°C° 0 mm 4 mps 745 mmHg 89%
    01:00 -5°C° 0 mm 5 mps 744 mmHg 86%
    02:00 -4°C° 0 mm 6 mps 743 mmHg 84%
    03:00 -4°C° 0.9 mm 6 mps 741 mmHg 86%
    04:00 -4°C° 0.9 mm 7 mps 739 mmHg 89%
    05:00 -5°C° 0.9 mm 8 mps 737 mmHg 92%
    06:00 -3°C° 1.3 mm 7 mps 735 mmHg 91%
    07:00 -3°C° 1.3 mm 7 mps 733 mmHg 90%
    08:00 -2°C° 1.3 mm 7 mps 731 mmHg 89%
    09:00 -2°C° 0.8 mm 6 mps 730 mmHg 92%
    10:00 0°C° 0.8 mm 5 mps 729 mmHg 95%
    11:00 0°C° 0.8 mm 4 mps 728 mmHg 98%
    12:00 0°C° 0.4 mm 5 mps 728 mmHg 93%
    13:00 -1°C° 0.4 mm 5 mps 728 mmHg 87%
    14:00 -2°C° 0.4 mm 6 mps 728 mmHg 82%
    15:00 -2°C° 0.1 mm 6 mps 728 mmHg 81%
    16:00 -2°C° 0.1 mm 6 mps 727 mmHg 80%
    17:00 -2°C° 0.1 mm 6 mps 727 mmHg 79%
    18:00 -2°C° 0.2 mm 6 mps 726 mmHg 78%
    19:00 -2°C° 0.2 mm 6 mps 726 mmHg 76%
    20:00 -3°C° 0.2 mm 7 mps 725 mmHg 75%
    21:00 -3°C° 0.2 mm 7 mps 724 mmHg 78%
    22:00 -4°C° 0.2 mm 8 mps 723 mmHg 81%
    23:00 -5°C° 0.2 mm 8 mps 723 mmHg 83%

    24 March, Sunday

    Time Temperature Precipitation Wind Pressure Humidity
    00:00 -4°C° 0.9 mm 9 mps 723 mmHg 83%
    01:00 -3°C° 0.9 mm 9 mps 724 mmHg 83%
    02:00 -1°C° 0.9 mm 9 mps 724 mmHg 83%
    03:00 -3°C° 0.6 mm 9 mps 726 mmHg 83%
    04:00 -3°C° 0.6 mm 9 mps 728 mmHg 82%
    05:00 -3°C° 0.6 mm 9 mps 730 mmHg 82%
    06:00 -4°C° 0.1 mm 9 mps 732 mmHg 79%
    07:00 -5°C° 0.1 mm 9 mps 734 mmHg 77%
    08:00 -7°C° 0.1 mm 8 mps 736 mmHg 75%
    09:00 -6°C° 0 mm 8 mps 737 mmHg 75%
    10:00 -6°C° 0 mm 7 mps 739 mmHg 75%
    11:00 -5°C° 0 mm 6 mps 740 mmHg 75%
    12:00 -5°C° 0 mm 6 mps 740 mmHg 77%
    13:00 -5°C° 0 mm 5 mps 741 mmHg 78%
    14:00 -5°C° 0 mm 5 mps 742 mmHg 79%
    15:00 -4°C° 0 mm 3 mps 742 mmHg 82%
    16:00 -3°C° 0 mm 2 mps 741 mmHg 84%
    17:00 -1°C° 0 mm 1 mps 741 mmHg 87%
    18:00 -2°C° 0 mm 1 mps 741 mmHg 88%
    19:00 -3°C° 0 mm 1 mps 740 mmHg 89%
    20:00 -5°C° 0 mm 2 mps 740 mmHg 90%
    21:00 -6°C° 0 mm 2 mps 739 mmHg 89%
    22:00 -6°C° 0 mm 2 mps 739 mmHg 89%
    23:00 -7°C° 0 mm 3 mps 738 mmHg 89%

    25 March, Monday

    Time Temperature Precipitation Wind Pressure Humidity
    00:00 -7°C° 0 mm 3 mps 738 mmHg 90%
    01:00 -8°C° 0 mm 3 mps 737 mmHg 91%
    02:00 -8°C° 0 mm 3 mps 736 mmHg 92%
    03:00 -8°C° 0 mm 3 mps 736 mmHg 93%
    04:00 -9°C° 0 mm 3 mps 735 mmHg 94%
    05:00 -9°C° 0 mm 3 mps 735 mmHg 96%
    06:00 -8°C° 0 mm 3 mps 735 mmHg 95%
    07:00 -7°C° 0 mm 3 mps 734 mmHg 95%
    08:00 -6°C° 0 mm 3 mps 734 mmHg 94%
    09:00 -5°C° 0 mm 3 mps 734 mmHg 94%
    10:00 -4°C° 0 mm 3 mps 734 mmHg 93%
    11:00 -2°C° 0 mm 3 mps 734 mmHg 93%
    12:00 -2°C° 0 mm 3 mps 734 mmHg 92%
    13:00 -2°C° 0 mm 3 mps 734 mmHg 91%
    14:00 -2°C° 0 mm 4 mps 734 mmHg 90%
    15:00 -1°C° 0.1 mm 3 mps 735 mmHg 90%
    16:00 -1°C° 0.1 mm 3 mps 735 mmHg 89%
    17:00 -1°C° 0.1 mm 3 mps 735 mmHg 88%
    18:00 -2°C° 0 mm 3 mps 736 mmHg 90%
    19:00 -2°C° 0 mm 3 mps 736 mmHg 91%
    20:00 -4°C° 0 mm 3 mps 737 mmHg 92%
    21:00 -3°C° 0 mm 2 mps 738 mmHg 93%
    22:00 -4°C° 0 mm 2 mps 738 mmHg 94%
    23:00 -5°C° 0 mm 2 mps 739 mmHg 95%
    Show more